Regional Weather Roundup
Issued by NWS Charleston, SC

Current Version | Previous Version | Graphics & Text | Print | Product List | Glossary Off
Versions: 1 2 3 4 5 6 7 8 9 10 11 12 13 14 15 16 17 18 19 20 21 22 23 24 25 26 27 28 29 30 31 32 33 34 35 36 37 38 39 40 41 42 43 44 45 46 47 48 49 50

000
ASUS42 KCHS 172327
RWRCHS

REGIONAL WEATHER ROUNDUP
NATIONAL WEATHER SERVICE CHARLESTON SC
600 PM EST FRI NOV 17 2017

NOTE: "FAIR" INDICATES FEW OR NO CLOUDS BELOW 12,000 FEET WITH NO
SIGNIFICANT WEATHER AND/OR OBSTRUCTIONS TO VISIBILITY.

NOT ALL STATIONS ARE QUALITY CONTROLLED. USE DATA WITH CAUTION...
ESPECIALLY DEWPOINT OBSERVATIONS.

SCZ027-030-031-034>040-042>050-180000-
...SOUTHEAST SOUTH CAROLINA...

CITY           SKY/WX    TMP DP  RH WIND       PRES   REMARKS
N CHARLESTON   CLEAR     53  44  71 SE8       30.15S
WATERFRONT PRK NOT AVBL
JOHNS ISLAND   FAIR      52  46  82 CALM      30.16R
PINOPOLIS        N/A     54  45  71 CALM      30.07R
MONCKS CORNER  FAIR      46  43  87 CALM      30.16R
SUMMERVILLE    FAIR      50  43  76 CALM      30.16S
BEAUFORT MCAS  CLEAR     55  50  83 CALM      30.15R
BEAUFORT ARPT  FAIR      54  46  76 NE5       30.15R
HILTON HEAD IS CLEAR     57  50  77 NE7       30.15
WALTERBORO     CLEAR     46  41  81 CALM      30.16R
ALLENDALE      FAIR      52  41  66 CALM      30.12F

...SOUTHERN MIDLANDS AND PEE DEE...

CITY           SKY/WX    TMP DP  RH WIND       PRES   REMARKS
GEORGETOWN     FAIR      45  43  93 CALM      30.17S
KINGSTREE      FAIR      45  43  93 CALM      30.16S
ORANGEBURG     CLEAR     50  41  71 CALM      30.15R
BARNWELL         N/A     54  41  62 CALM      30.13F
AIKEN          FAIR      54  34  47 E5        30.15S
MANNING        FAIR      46  45  93 MISG      30.16R
COLUMBIA       PTCLDY    56  39  53 E5        30.13S
SUMTER         CLEAR     53  36  52 CALM      30.12S
FLORENCE       CLEAR     51  40  65 CALM      30.16R
MYRTLE BEACH   CLEAR     49  43  80 CALM      30.18S
N MYRTLE BEACH CLEAR     47  44  90 CALM      30.17R

$$

GAZ063-065-086>088-099>101-113>116-118-119-134>141-150-180000-
...SOUTHEAST GEORGIA...

CITY           SKY/WX    TMP DP  RH WIND       PRES   REMARKS
SAVANNAH ARPT  PTCLDY    58  45  62 E5        30.15R
HUNTER AAF     PTCLDY    57  48  72 NE3       30.12R
FORT STEWART   CLEAR     58  48  69 E7        30.12R
STATESBORO     CLEAR     51  39  63 CALM      30.12F
SYLVANIA       CLEAR     54  46  73 CALM      30.14S
CLAXTON        FAIR      54  49  83 CALM      30.12F

...CSRA...CENTRAL AND FAR SOUTHEAST GEORGIA...

CITY           SKY/WX    TMP DP  RH WIND       PRES   REMARKS
THOMSON        CLEAR     50  41  72 CALM      30.17R
AUGUSTA-BUSH   CLEAR     52  42  69 CALM      30.11F
AUGUSTA-DANIEL CLEAR     61  36  39 SE5       30.12F
SWAINSBORO     FAIR      52  43  71 CALM      30.12S
VIDALIA        CLEAR     57  45  62 CALM      30.11S
EASTMAN        FAIR      58  36  43 CALM      30.12F
HAZLEHURST     FAIR      60  38  44 CALM      30.09F
ALMA           PTCLDY    60  51  72 CALM      30.10F
WAYCROSS       CLOUDY    64  51  64 SE7       30.11S
JESUP          FAIR      61  52  72 CALM      30.12F
BAXLEY         FAIR      59  50  72 CALM      30.11R
BRUNSWICK      MOCLDY    59  54  82 N5        30.13S
SAINT SIMONS   PTCLDY    62  57  83 N9        30.11S

$$

SCZ027-028-034-036>038-045-046-048>050-GAZ119-141-180000-
...LAKE AND SUPPLEMENTAL COASTAL OBSERVATIONS...

STATION/POSITION TIME  TEMP    WIND        PRES    WAVE   SWELL
                       AIR SEA DIR/SP/G            HT/PER HT/PER/DIR
                 (UTC) (F)     (DEG/KT/KT) (MB)    (FT/S) (FT/S/D)
WINYAH BAY       2245   51        CALM     1021.0S
LAKE MURRAY      2250   60     100/  3/  6 1019.3F
ACE BASIN NERRS  2245   55     100/  1     1021.0S
FORT PULASKI     NOT AVBL
SAPELO ISLAND    2300   59      30/  6     1020.0

$$

ANZ835-935-AMZ111-154-330-350-352-354-370-450-454-472-180000-
...C-MAN AND BUOY OBSERVATIONS...

STATION/POSITION TIME  TEMP    WIND        PRES    WAVE   SWELL
                       AIR SEA DIR/SP/G            HT/PER HT/PER/DIR
                 (UTC) (F)     (DEG/KT/KT) (MB)    (FT/S) (FT/S/D)
BUOY 41004       2310   63 76   40/  8/ 14 1020.3
BUOY 41008       2250   65 68   60/ 16/ 19 1019.1F   5/ 6   2/100/10
FOLLY BEACH CMAN 2300   58      80/ 11/ 13 1021.5S
CAPERS NEARSHORE 2308   54 63   90/ 12/ 16 1020.8R
FRIPP NEARSHORE  2308   57 63   60/ 12/ 19 1020.1R


STATION/POSITION TIME  TEMP    WIND        PRES    WAVE   SWELL
                       AIR SEA DIR/SP/G            HT/PER HT/PER/DIR
                 (UTC) (F)     (DEG/KT/KT) (MB)    (FT/S) (FT/S/D)
5E ST. MARYS GA  2300      67                N/A     4/ 4   2/ 70/12
FRYING PAN BUOY  2310   58 72   30/ 10/ 14 1020.9
BUOY 41025       2310   54 65   10/ 12/ 16 1021.7
CAPE LOOKOUT NC  2300   51      20/  7/  7 1022.0R
BUOY 41002       2250   68 77   40/ 14/ 17 1018.5R   7/ 7   7/ 40/ 7
BUOY 41010       NOT AVBL
ST AUGUSTINE FL  2300   68 69  350/ 13/ 14 1018.4F


$$




USA.gov is the U.S. government's official web portal to all federal, state and local government web resources and services.